Location: Newark
(56.0692°N, 115.8617°E)
Time: 12:45:48
(UTC+00:00)

Vanguard 2 Rocket - Pass Details

Date: 31 May 2020
Orbit: 556 x 3325 km, 32.9° (Epoch: 14 July)

Event Time Altitude Azimuth Distance (km) Brightness Sun altitude
Rises 13:43:41 0° 258° (WSW) 6,060 11.4 -5.6°
Reaches altitude 10° 13:54:17 10° 224° (SW) 5,807 10.9 -6.5°
Maximum altitude 13:56:09 10° 218° (SW) 5,883 10.8 -6.6°
Drops below altitude 10° 13:58:04 10° 212° (SSW) 5,993 10.8 -6.7°
Sets 14:11:01 0° 179° (S) 7,303 11.0 -7.6°
Enters shadow 14:11:11 - 179° (S) 7,323 11.0 -7.7°
